| time (UTC) | temp F | wind direction | speed MPH | gust MPH | rain 1hr in | rain 24hr in | rain mn in | humidity % | barometer mb |
| 20260901001504 | 79 | 61 | 0.0 | 1.0 | 0.00 | 0.00 | 0.00 | 20 | 1017.2 |
| 20260901001003 | 80 | 50 | 0.0 | 0.0 | 0.00 | 0.00 | 0.00 | 19 | 1017.3 |
| 20260901000504 | 80 | 14 | 0.0 | 3.0 | 0.00 | 0.00 | 0.00 | 19 | 1017.2 |
| 20260901000004 | 80 | 33 | 0.0 | 1.0 | 0.00 | 0.00 | 0.00 | 19 | 1017.3 |
| 20260831235504 | 80 | 40 | 0.0 | 0.0 | 0.00 | 0.00 | 0.00 | 19 | 1017.4 |
| 20260831235004 | 81 | 55 | 0.0 | 1.0 | 0.00 | 0.00 | 0.00 | 19 | 1017.4 |
| 20260831234004 | 82 | 2 | 0.0 | 3.0 | 0.00 | 0.00 | 0.00 | 18 | 1017.5 |
| 20260831233503 | 82 | 18 | 0.0 | 2.0 | 0.00 | 0.00 | 0.00 | 17 | 1017.5 |
| 20260831233004 | 83 | 0 | 0.0 | 2.0 | 0.00 | 0.00 | 0.00 | 17 | 1017.5 |
| 20260831232503 | 83 | 13 | 0.0 | 1.0 | 0.00 | 0.00 | 0.00 | 17 | 1017.5 |
| 20260831232003 | 83 | 254 | 0.0 | 0.0 | 0.00 | 0.00 | 0.00 | 18 | 1017.5 |
| 20260831231503 | 84 | 241 | 0.0 | 0.0 | 0.00 | 0.00 | 0.00 | 17 | 1017.6 |
| 20260831231003 | 82 | 242 | 0.0 | 0.0 | 0.00 | 0.00 | 0.00 | 18 | 1017.6 |
| 20260831230504 | 81 | 242 | 0.0 | 0.0 | 0.00 | 0.00 | 0.00 | 19 | 1017.7 |
| 20260831230004 | 81 | 246 | 0.0 | 0.0 | 0.00 | 0.00 | 0.00 | 19 | 1017.8 |
| 20260831225503 | 80 | 242 | 0.0 | 0.0 | 0.00 | 0.00 | 0.00 | 19 | 1017.8 |
| 20260831225004 | 80 | 223 | 0.0 | 1.0 | 0.00 | 0.00 | 0.00 | 19 | 1017.8 |
| 20260831224504 | 80 | 162 | 0.0 | 0.0 | 0.00 | 0.00 | 0.00 | 19 | 1017.9 |
| 20260831224004 | 79 | 207 | 0.0 | 2.0 | 0.00 | 0.00 | 0.00 | 19 | 1018.0 |
| 20260831223503 | 80 | 100 | 0.0 | 1.0 | 0.00 | 0.00 | 0.00 | 19 | 1018.0 |
| 20260831223004 | 80 | 147 | 0.0 | 1.0 | 0.00 | 0.00 | 0.00 | 19 | 1018.0 |
| 20260831222004 | 80 | 131 | 0.0 | 1.0 | 0.00 | 0.00 | 0.00 | 19 | 1018.1 |
| 20260831221503 | 79 | 136 | 0.0 | 1.0 | 0.00 | 0.00 | 0.00 | 19 | 1018.1 |
| 20260831221004 | 79 | 147 | 0.0 | 3.0 | 0.00 | 0.00 | 0.00 | 20 | 1018.2 |
| 20260831220504 | 79 | 122 | 0.0 | 3.0 | 0.00 | 0.00 | 0.00 | 19 | 1018.3 |
| 20260831215004 | 79 | 155 | 0.0 | 2.0 | 0.00 | 0.00 | 0.00 | 19 | 1018.5 |
| 20260831214504 | 79 | 125 | 0.0 | 1.0 | 0.00 | 0.00 | 0.00 | 20 | 1018.5 |
| 20260831214004 | 78 | 194 | 0.0 | 1.0 | 0.00 | 0.00 | 0.00 | 20 | 1018.5 |
| 20260831213504 | 79 | 197 | 0.0 | 1.0 | 0.00 | 0.00 | 0.00 | 20 | 1018.6 |
| 20260831213003 | 78 | 170 | 0.0 | 2.0 | 0.00 | 0.00 | 0.00 | 20 | 1018.7 |
| 20260831212503 | 78 | 125 | 0.0 | 1.0 | 0.00 | 0.00 | 0.00 | 20 | 1018.7 |
| 20260831212004 | 78 | 164 | 0.0 | 1.0 | 0.00 | 0.00 | 0.00 | 20 | 1018.8 |
| 20260831211504 | 78 | 133 | 0.0 | 2.0 | 0.00 | 0.00 | 0.00 | 19 | 1018.7 |
| 20260831211004 | 79 | 81 | 0.0 | 0.0 | 0.00 | 0.00 | 0.00 | 20 | 1018.8 |
| 20260831210504 | 78 | 116 | 0.0 | 2.0 | 0.00 | 0.00 | 0.00 | 19 | 1018.8 |
| 20260831210004 | 78 | 82 | 0.0 | 2.0 | 0.00 | 0.00 | 0.00 | 20 | 1018.9 |
| 20260831205504 | 78 | 107 | 0.0 | 1.0 | 0.00 | 0.00 | 0.00 | 19 | 1018.9 |
| 20260831205004 | 78 | 138 | 0.0 | 1.0 | 0.00 | 0.00 | 0.00 | 19 | 1019.0 |
| 20260831204504 | 78 | 141 | 0.0 | 3.0 | 0.00 | 0.00 | 0.00 | 20 | 1019.0 |
| 20260831203503 | 77 | 73 | 0.0 | 0.0 | 0.00 | 0.00 | 0.00 | 21 | 1019.1 |
| 20260831203004 | 76 | 105 | 0.0 | 3.0 | 0.00 | 0.00 | 0.00 | 20 | 1019.2 |
| 20260831202504 | 77 | 80 | 0.0 | 5.0 | 0.00 | 0.00 | 0.00 | 22 | 1019.2 |
| 20260831201003 | 75 | 79 | 0.0 | 1.0 | 0.00 | 0.00 | 0.00 | 22 | 1019.4 |
| 20260831200504 | 75 | 110 | 1.0 | 2.0 | 0.00 | 0.00 | 0.00 | 23 | 1019.4 |
| 20260831200004 | 74 | 103 | 0.0 | 3.0 | 0.00 | 0.00 | 0.00 | 22 | 1019.5 |
| 20260831195504 | 75 | 74 | 0.0 | 3.0 | 0.00 | 0.00 | 0.00 | 23 | 1019.4 |
| 20260831194503 | 74 | 110 | 0.0 | 2.0 | 0.00 | 0.00 | 0.00 | 23 | 1019.5 |
| 20260831194004 | 74 | 108 | 0.0 | 2.0 | 0.00 | 0.00 | 0.00 | 24 | 1019.5 |
| 20260831193504 | 73 | 122 | 0.0 | 2.0 | 0.00 | 0.00 | 0.00 | 23 | 1019.6 |
| 20260831193004 | 74 | 140 | 1.0 | 2.0 | 0.00 | 0.00 | 0.00 | 23 | 1019.7 |
| 20260831192504 | 74 | 143 | 0.0 | 2.0 | 0.00 | 0.00 | 0.00 | 24 | 1019.7 |
| 20260831192004 | 74 | 99 | 1.0 | 2.0 | 0.00 | 0.00 | 0.00 | 23 | 1019.8 |
| 20260831191003 | 73 | 134 | 1.0 | 3.0 | 0.00 | 0.00 | 0.00 | 24 | 1019.9 |
| 20260831190503 | 73 | 119 | 1.0 | 5.0 | 0.00 | 0.00 | 0.00 | 23 | 1020.0 |
| 20260831190004 | 73 | 160 | 0.0 | 2.0 | 0.00 | 0.00 | 0.00 | 25 | 1020.0 |
| 20260831185504 | 72 | 114 | 1.0 | 3.0 | 0.00 | 0.00 | 0.00 | 25 | 1020.0 |
| 20260831184004 | 71 | 101 | 1.0 | 3.0 | 0.00 | 0.00 | 0.00 | 27 | 1020.3 |
| 20260831183503 | 70 | 117 | 2.0 | 3.0 | 0.00 | 0.00 | 0.00 | 28 | 1020.3 |
| 20260831183004 | 70 | 119 | 1.0 | 3.0 | 0.00 | 0.00 | 0.00 | 28 | 1020.3 |
| 20260831182503 | 70 | 120 | 1.0 | 3.0 | 0.00 | 0.00 | 0.00 | 28 | 1020.3 |
| 20260831182004 | 70 | 128 | 1.0 | 3.0 | 0.00 | 0.00 | 0.00 | 28 | 1020.3 |
| 20260831181504 | 69 | 106 | 2.0 | 3.0 | 0.00 | 0.00 | 0.00 | 29 | 1020.4 |
| 20260831181003 | 69 | 106 | 1.0 | 3.0 | 0.00 | 0.00 | 0.00 | 30 | 1020.5 |
| 20260831180503 | 68 | 115 | 1.0 | 3.0 | 0.00 | 0.00 | 0.00 | 30 | 1020.5 |
| 20260831180004 | 68 | 112 | 1.0 | 3.0 | 0.00 | 0.00 | 0.00 | 30 | 1020.5 |
| 20260831175503 | 68 | 108 | 0.0 | 3.0 | 0.00 | 0.00 | 0.00 | 31 | 1020.6 |
| 20260831174504 | 67 | 136 | 1.0 | 3.0 | 0.00 | 0.00 | 0.00 | 32 | 1020.6 |
| 20260831174004 | 67 | 118 | 1.0 | 3.0 | 0.00 | 0.00 | 0.00 | 32 | 1020.7 |
| 20260831173504 | 66 | 136 | 0.0 | 2.0 | 0.00 | 0.00 | 0.00 | 33 | 1020.7 |
| 20260831173003 | 66 | 120 | 1.0 | 3.0 | 0.00 | 0.00 | 0.00 | 33 | 1020.7 |
| 20260831172503 | 65 | 126 | 1.0 | 2.0 | 0.00 | 0.00 | 0.00 | 33 | 1020.8 |
| 20260831172004 | 66 | 125 | 2.0 | 5.0 | 0.00 | 0.00 | 0.00 | 33 | 1020.8 |
| 20260831171504 | 66 | 142 | 1.0 | 3.0 | 0.00 | 0.00 | 0.00 | 34 | 1020.9 |
| 20260831171004 | 65 | 123 | 0.0 | 3.0 | 0.00 | 0.00 | 0.00 | 33 | 1020.9 |
| 20260831170504 | 64 | 116 | 1.0 | 3.0 | 0.00 | 0.00 | 0.00 | 34 | 1020.9 |
| 20260831170003 | 64 | 139 | 1.0 | 3.0 | 0.00 | 0.00 | 0.00 | 34 | 1020.9 |
| 20260831165503 | 64 | 121 | 1.0 | 3.0 | 0.00 | 0.00 | 0.00 | 34 | 1020.9 |
| 20260831164503 | 63 | 151 | 1.0 | 3.0 | 0.00 | 0.00 | 0.00 | 35 | 1020.9 |
| 20260831164003 | 63 | 143 | 1.0 | 3.0 | 0.00 | 0.00 | 0.00 | 36 | 1020.9 |
| 20260831163504 | 62 | 135 | 1.0 | 3.0 | 0.00 | 0.00 | 0.00 | 36 | 1020.9 |
| 20260831162504 | 62 | 121 | 1.0 | 6.0 | 0.00 | 0.00 | 0.00 | 37 | 1021.0 |
| 20260831161503 | 61 | 133 | 1.0 | 3.0 | 0.00 | 0.00 | 0.00 | 38 | 1021.1 |
| 20260831161004 | 61 | 146 | 1.0 | 3.0 | 0.00 | 0.00 | 0.00 | 39 | 1021.1 |
| 20260831160504 | 60 | 138 | 1.0 | 3.0 | 0.00 | 0.00 | 0.00 | 40 | 1021.1 |
| 20260831155504 | 59 | 155 | 0.0 | 2.0 | 0.00 | 0.00 | 0.00 | 41 | 1021.1 |
| 20260831155004 | 59 | 146 | 0.0 | 2.0 | 0.00 | 0.00 | 0.00 | 42 | 1021.1 |
| 20260831154504 | 58 | 137 | 0.0 | 2.0 | 0.00 | 0.00 | 0.00 | 43 | 1021.2 |
| 20260831154003 | 57 | 136 | 0.0 | 2.0 | 0.00 | 0.00 | 0.00 | 44 | 1021.2 |
| 20260831153504 | 57 | 132 | 0.0 | 1.0 | 0.00 | 0.00 | 0.00 | 45 | 1021.1 |
| 20260831153003 | 56 | 137 | 0.0 | 1.0 | 0.00 | 0.00 | 0.00 | 47 | 1021.1 |
| 20260831152504 | 55 | 131 | 0.0 | 1.0 | 0.00 | 0.00 | 0.00 | 47 | 1021.1 |
| 20260831152003 | 55 | 159 | 0.0 | 0.0 | 0.00 | 0.00 | 0.00 | 49 | 1021.1 |
| 20260831151504 | 54 | 144 | 0.0 | 0.0 | 0.00 | 0.00 | 0.00 | 50 | 1021.1 |
| 20260831151006 | 54 | 141 | 0.0 | 0.0 | 0.00 | 0.00 | 0.00 | 50 | 1021.1 |
| 20260831150006 | 53 | 139 | 0.0 | 1.0 | 0.00 | 0.00 | 0.00 | 51 | 1021.2 |
| 20260831145507 | 53 | 135 | 0.0 | 1.0 | 0.00 | 0.00 | 0.00 | 51 | 1021.3 |
| 20260831145006 | 53 | 143 | 0.0 | 0.0 | 0.00 | 0.00 | 0.00 | 52 | 1021.2 |
| 20260831144506 | 53 | 158 | 0.0 | 0.0 | 0.00 | 0.00 | 0.00 | 52 | 1021.1 |
| 20260831143506 | 52 | 163 | 0.0 | 0.0 | 0.00 | 0.00 | 0.00 | 54 | 1021.1 |
| 20260831143005 | 51 | 161 | 0.0 | 0.0 | 0.00 | 0.00 | 0.00 | 55 | 1021.0 |
| 20260831142505 | 51 | 165 | 0.0 | 0.0 | 0.00 | 0.00 | 0.00 | 56 | 1021.0 |
| 20260831142005 | 50 | 163 | 0.0 | 0.0 | 0.00 | 0.00 | 0.00 | 56 | 1021.0 |
| 20260831141506 | 50 | 165 | 0.0 | 0.0 | 0.00 | 0.00 | 0.00 | 57 | 1021.0 |
| 20260831140505 | 49 | 173 | 0.0 | 0.0 | 0.00 | 0.00 | 0.00 | 58 | 1020.9 |
| 20260831140005 | 48 | 173 | 0.0 | 0.0 | 0.00 | 0.00 | 0.00 | 58 | 1020.9 |
| 20260831135006 | 48 | 165 | 0.0 | 0.0 | 0.00 | 0.00 | 0.00 | 58 | 1020.8 |
| 20260831134505 | 48 | 168 | 0.0 | 0.0 | 0.00 | 0.00 | 0.00 | 58 | 1020.8 |
| 20260831133505 | 48 | 154 | 0.0 | 0.0 | 0.00 | 0.00 | 0.00 | 58 | 1020.8 |
| 20260831133006 | 48 | 150 | 0.0 | 0.0 | 0.00 | 0.00 | 0.00 | 58 | 1020.8 |
| 20260831132505 | 47 | 135 | 0.0 | 0.0 | 0.00 | 0.00 | 0.00 | 58 | 1020.7 |
| 20260831132006 | 47 | 134 | 0.0 | 0.0 | 0.00 | 0.00 | 0.00 | 59 | 1020.7 |
| 20260831131006 | 47 | 217 | 0.0 | 0.0 | 0.00 | 0.00 | 0.00 | 58 | 1020.6 |
| 20260831130506 | 47 | 246 | 0.0 | 0.0 | 0.00 | 0.00 | 0.00 | 59 | 1020.6 |
| 20260831130005 | 47 | 246 | 0.0 | 0.0 | 0.00 | 0.00 | 0.00 | 59 | 1020.7 |
| 20260831125505 | 47 | 246 | 0.0 | 0.0 | 0.00 | 0.00 | 0.00 | 59 | 1020.7 |
| 20260831125005 | 47 | 246 | 0.0 | 0.0 | 0.00 | 0.00 | 0.00 | 59 | 1020.7 |
| 20260831124505 | 47 | 246 | 0.0 | 0.0 | 0.00 | 0.00 | 0.00 | 59 | 1020.6 |
| 20260831124006 | 47 | 246 | 0.0 | 0.0 | 0.00 | 0.00 | 0.00 | 58 | 1020.6 |
| 20260831123505 | 48 | 246 | 0.0 | 0.0 | 0.00 | 0.00 | 0.00 | 57 | 1020.7 |
| 20260831123005 | 49 | 246 | 0.0 | 0.0 | 0.00 | 0.00 | 0.00 | 57 | 1020.6 |
| 20260831122505 | 49 | 246 | 0.0 | 0.0 | 0.00 | 0.00 | 0.00 | 57 | 1020.7 |
| 20260831122006 | 49 | 246 | 0.0 | 0.0 | 0.00 | 0.00 | 0.00 | 57 | 1020.7 |
| 20260831121506 | 48 | 246 | 0.0 | 0.0 | 0.00 | 0.00 | 0.00 | 58 | 1020.7 |
| 20260831121005 | 48 | 246 | 0.0 | 0.0 | 0.00 | 0.00 | 0.00 | 58 | 1020.8 |
| 20260831120506 | 48 | 246 | 0.0 | 0.0 | 0.00 | 0.00 | 0.00 | 58 | 1020.8 |
| 20260831120005 | 48 | 246 | 0.0 | 0.0 | 0.00 | 0.00 | 0.00 | 59 | 1020.8 |
| 20260831115506 | 48 | 246 | 0.0 | 0.0 | 0.00 | 0.00 | 0.00 | 59 | 1020.8 |
| 20260831115006 | 47 | 246 | 0.0 | 0.0 | 0.00 | 0.00 | 0.00 | 60 | 1020.8 |
| 20260831114506 | 47 | 246 | 0.0 | 0.0 | 0.00 | 0.00 | 0.00 | 60 | 1020.8 |
| 20260831114005 | 47 | 246 | 0.0 | 0.0 | 0.00 | 0.00 | 0.00 | 60 | 1020.8 |
| 20260831113506 | 47 | 246 | 0.0 | 0.0 | 0.00 | 0.00 | 0.00 | 60 | 1020.8 |
| 20260831113006 | 47 | 246 | 0.0 | 0.0 | 0.00 | 0.00 | 0.00 | 59 | 1020.8 |
| 20260831112506 | 48 | 248 | 0.0 | 0.0 | 0.00 | 0.00 | 0.00 | 59 | 1020.8 |
| 20260831112006 | 47 | 252 | 0.0 | 0.0 | 0.00 | 0.00 | 0.00 | 59 | 1020.8 |
| 20260831111506 | 48 | 252 | 0.0 | 0.0 | 0.00 | 0.00 | 0.00 | 59 | 1020.8 |
| 20260831111006 | 48 | 252 | 0.0 | 0.0 | 0.00 | 0.00 | 0.00 | 59 | 1020.8 |
| 20260831110506 | 48 | 252 | 0.0 | 0.0 | 0.00 | 0.00 | 0.00 | 59 | 1020.8 |
| 20260831110006 | 48 | 252 | 0.0 | 0.0 | 0.00 | 0.00 | 0.00 | 59 | 1020.8 |
| 20260831105507 | 48 | 252 | 0.0 | 0.0 | 0.00 | 0.00 | 0.00 | 59 | 1020.9 |
| 20260831105007 | 48 | 252 | 0.0 | 0.0 | 0.00 | 0.00 | 0.00 | 59 | 1020.9 |
| 20260831104007 | 48 | 252 | 0.0 | 0.0 | 0.00 | 0.00 | 0.00 | 58 | 1020.9 |
| 20260831103507 | 48 | 252 | 0.0 | 0.0 | 0.00 | 0.00 | 0.00 | 58 | 1020.9 |
| 20260831103007 | 48 | 252 | 0.0 | 0.0 | 0.00 | 0.00 | 0.00 | 59 | 1020.9 |
| 20260831102507 | 48 | 252 | 0.0 | 0.0 | 0.00 | 0.00 | 0.00 | 59 | 1020.9 |
| 20260831102007 | 48 | 252 | 0.0 | 0.0 | 0.00 | 0.00 | 0.00 | 58 | 1020.9 |
| 20260831101507 | 48 | 252 | 0.0 | 0.0 | 0.00 | 0.00 | 0.00 | 58 | 1020.9 |
| 20260831101007 | 49 | 252 | 0.0 | 0.0 | 0.00 | 0.00 | 0.00 | 58 | 1020.9 |
| 20260831100507 | 49 | 252 | 0.0 | 0.0 | 0.00 | 0.00 | 0.00 | 57 | 1021.0 |
| 20260831100006 | 49 | 252 | 0.0 | 0.0 | 0.00 | 0.00 | 0.00 | 56 | 1020.9 |
| 20260831095507 | 50 | 252 | 0.0 | 0.0 | 0.00 | 0.00 | 0.00 | 56 | 1021.0 |
| 20260831095008 | 50 | 252 | 0.0 | 0.0 | 0.00 | 0.00 | 0.00 | 57 | 1021.0 |
| 20260831094507 | 49 | 252 | 0.0 | 0.0 | 0.00 | 0.00 | 0.00 | 57 | 1021.0 |
| 20260831094006 | 50 | 252 | 0.0 | 0.0 | 0.00 | 0.00 | 0.00 | 56 | 1021.0 |
| 20260831093506 | 50 | 252 | 0.0 | 0.0 | 0.00 | 0.00 | 0.00 | 55 | 1021.1 |
| 20260831093007 | 51 | 252 | 0.0 | 0.0 | 0.00 | 0.00 | 0.00 | 54 | 1021.1 |
| 20260831092507 | 52 | 252 | 0.0 | 0.0 | 0.00 | 0.00 | 0.00 | 54 | 1021.1 |
| 20260831092007 | 52 | 252 | 0.0 | 0.0 | 0.00 | 0.00 | 0.00 | 53 | 1021.1 |
| 20260831091507 | 52 | 274 | 0.0 | 0.0 | 0.00 | 0.00 | 0.00 | 53 | 1021.2 |
| 20260831091007 | 52 | 274 | 0.0 | 0.0 | 0.00 | 0.00 | 0.00 | 53 | 1021.2 |
| 20260831090507 | 52 | 274 | 0.0 | 0.0 | 0.00 | 0.00 | 0.00 | 53 | 1021.3 |
| 20260831090007 | 52 | 274 | 0.0 | 0.0 | 0.00 | 0.00 | 0.00 | 53 | 1021.3 |
| 20260831085506 | 52 | 274 | 0.0 | 0.0 | 0.00 | 0.00 | 0.00 | 53 | 1021.3 |
| 20260831085006 | 53 | 274 | 0.0 | 0.0 | 0.00 | 0.00 | 0.00 | 53 | 1021.3 |
| 20260831084507 | 52 | 274 | 0.0 | 0.0 | 0.00 | 0.00 | 0.00 | 52 | 1021.3 |
| 20260831084006 | 53 | 274 | 0.0 | 0.0 | 0.00 | 0.00 | 0.00 | 51 | 1021.4 |
| 20260831083006 | 53 | 274 | 0.0 | 0.0 | 0.00 | 0.00 | 0.00 | 53 | 1021.5 |
| 20260831082506 | 53 | 274 | 0.0 | 0.0 | 0.00 | 0.00 | 0.00 | 53 | 1021.5 |
| 20260831082007 | 52 | 274 | 0.0 | 0.0 | 0.00 | 0.00 | 0.00 | 53 | 1021.4 |
| 20260831081507 | 52 | 274 | 0.0 | 0.0 | 0.00 | 0.00 | 0.00 | 53 | 1021.4 |
| 20260831081006 | 52 | 274 | 0.0 | 0.0 | 0.00 | 0.00 | 0.00 | 53 | 1021.4 |
| 20260831080506 | 52 | 274 | 0.0 | 0.0 | 0.00 | 0.00 | 0.00 | 53 | 1021.4 |
| 20260831080006 | 53 | 274 | 0.0 | 0.0 | 0.00 | 0.00 | 0.00 | 53 | 1021.5 |
| 20260831075506 | 53 | 274 | 0.0 | 0.0 | 0.00 | 0.00 | 0.00 | 53 | 1021.6 |
| 20260831075006 | 52 | 274 | 0.0 | 0.0 | 0.00 | 0.00 | 0.00 | 54 | 1021.6 |
| 20260831074506 | 52 | 274 | 0.0 | 0.0 | 0.00 | 0.00 | 0.00 | 54 | 1021.6 |
| 20260831074006 | 52 | 274 | 0.0 | 0.0 | 0.00 | 0.00 | 0.00 | 53 | 1021.6 |
| 20260831073006 | 52 | 274 | 0.0 | 0.0 | 0.00 | 0.00 | 0.00 | 54 | 1021.6 |
| 20260831072506 | 52 | 274 | 0.0 | 0.0 | 0.00 | 0.00 | 0.00 | 54 | 1021.6 |
| 20260831072006 | 52 | 274 | 0.0 | 0.0 | 0.00 | 0.00 | 0.00 | 53 | 1021.5 |
| 20260831071506 | 52 | 274 | 0.0 | 0.0 | 0.00 | 0.00 | 0.00 | 53 | 1021.6 |
| 20260831071006 | 53 | 274 | 0.0 | 0.0 | 0.00 | 0.00 | 0.00 | 52 | 1021.6 |
| 20260831070505 | 53 | 302 | 0.0 | 0.0 | 0.00 | 0.00 | 0.00 | 51 | 1021.5 |
| 20260831070005 | 54 | 303 | 0.0 | 0.0 | 0.00 | 0.00 | 0.00 | 51 | 1021.5 |
| 20260831065506 | 54 | 303 | 0.0 | 0.0 | 0.00 | 0.00 | 0.00 | 51 | 1021.5 |
| 20260831065006 | 54 | 303 | 0.0 | 0.0 | 0.00 | 0.00 | 0.00 | 51 | 1021.5 |
| 20260831064505 | 53 | 303 | 0.0 | 0.0 | 0.00 | 0.00 | 0.00 | 53 | 1021.6 |
| 20260831064006 | 52 | 303 | 0.0 | 0.0 | 0.00 | 0.00 | 0.00 | 52 | 1021.6 |
| 20260831063007 | 55 | 303 | 0.0 | 0.0 | 0.00 | 0.00 | 0.00 | 49 | 1021.5 |
| 20260831061505 | 54 | 303 | 0.0 | 0.0 | 0.00 | 0.00 | 0.00 | 51 | 1021.6 |
| 20260831061006 | 55 | 303 | 0.0 | 0.0 | 0.00 | 0.00 | 0.00 | 49 | 1021.6 |
| 20260831060506 | 55 | 303 | 0.0 | 0.0 | 0.00 | 0.00 | 0.00 | 51 | 1021.6 |
| 20260831060006 | 55 | 303 | 0.0 | 0.0 | 0.00 | 0.00 | 0.00 | 49 | 1021.6 |
| 20260831055505 | 55 | 303 | 0.0 | 0.0 | 0.00 | 0.00 | 0.00 | 49 | 1021.6 |
| 20260831054506 | 55 | 303 | 0.0 | 0.0 | 0.00 | 0.00 | 0.00 | 50 | 1021.7 |
| 20260831054005 | 54 | 303 | 0.0 | 0.0 | 0.00 | 0.00 | 0.00 | 50 | 1021.7 |
| 20260831053006 | 55 | 303 | 0.0 | 0.0 | 0.00 | 0.00 | 0.00 | 50 | 1021.7 |
| 20260831052506 | 55 | 303 | 0.0 | 0.0 | 0.00 | 0.00 | 0.00 | 50 | 1021.8 |
| 20260831052005 | 55 | 303 | 0.0 | 0.0 | 0.00 | 0.00 | 0.00 | 49 | 1021.8 |
| 20260831051506 | 55 | 303 | 0.0 | 0.0 | 0.00 | 0.00 | 0.00 | 50 | 1021.9 |
| 20260831050005 | 55 | 303 | 0.0 | 0.0 | 0.00 | 0.00 | 0.00 | 49 | 1022.0 |
| 20260831045505 | 55 | 304 | 0.0 | 0.0 | 0.00 | 0.00 | 0.00 | 49 | 1021.9 |
| 20260831045005 | 55 | 304 | 0.0 | 0.0 | 0.00 | 0.00 | 0.00 | 48 | 1021.9 |
| 20260831044505 | 55 | 304 | 0.0 | 0.0 | 0.00 | 0.00 | 0.00 | 48 | 1022.0 |
| 20260831044005 | 56 | 304 | 0.0 | 0.0 | 0.00 | 0.00 | 0.00 | 47 | 1021.9 |
| 20260831043506 | 56 | 304 | 0.0 | 0.0 | 0.00 | 0.00 | 0.00 | 47 | 1022.0 |
| 20260831043005 | 56 | 304 | 0.0 | 0.0 | 0.00 | 0.00 | 0.00 | 47 | 1022.0 |
| 20260831042506 | 55 | 304 | 0.0 | 0.0 | 0.00 | 0.00 | 0.00 | 47 | 1022.0 |
| 20260831042006 | 55 | 304 | 0.0 | 0.0 | 0.00 | 0.00 | 0.00 | 47 | 1022.0 |
| 20260831041006 | 55 | 304 | 0.0 | 0.0 | 0.00 | 0.00 | 0.00 | 45 | 1022.0 |
| 20260831040505 | 56 | 304 | 0.0 | 0.0 | 0.00 | 0.00 | 0.00 | 45 | 1022.0 |
| 20260831040005 | 56 | 304 | 0.0 | 0.0 | 0.00 | 0.00 | 0.00 | 44 | 1022.0 |
| 20260831035505 | 56 | 303 | 0.0 | 0.0 | 0.00 | 0.00 | 0.00 | 44 | 1021.9 |
| 20260831035005 | 56 | 303 | 0.0 | 0.0 | 0.00 | 0.00 | 0.00 | 42 | 1021.9 |
| 20260831034506 | 56 | 303 | 0.0 | 0.0 | 0.00 | 0.00 | 0.00 | 43 | 1021.9 |
| 20260831033006 | 56 | 303 | 0.0 | 0.0 | 0.00 | 0.00 | 0.00 | 42 | 1021.9 |
| 20260831032506 | 56 | 303 | 0.0 | 0.0 | 0.00 | 0.00 | 0.00 | 42 | 1021.8 |
| 20260831032005 | 57 | 303 | 0.0 | 0.0 | 0.00 | 0.00 | 0.00 | 40 | 1021.8 |
| 20260831031506 | 57 | 303 | 0.0 | 0.0 | 0.00 | 0.00 | 0.00 | 40 | 1021.8 |
| 20260831031006 | 57 | 303 | 0.0 | 0.0 | 0.00 | 0.00 | 0.00 | 40 | 1021.8 |
| 20260831030005 | 58 | 302 | 0.0 | 0.0 | 0.00 | 0.00 | 0.00 | 38 | 1021.7 |
| 20260831025006 | 59 | 302 | 0.0 | 0.0 | 0.00 | 0.00 | 0.00 | 37 | 1021.5 |
| 20260831024506 | 59 | 302 | 0.0 | 0.0 | 0.00 | 0.00 | 0.00 | 36 | 1021.4 |
| 20260831024006 | 60 | 302 | 0.0 | 0.0 | 0.00 | 0.00 | 0.00 | 35 | 1021.4 |
| 20260831023507 | 60 | 302 | 0.0 | 0.0 | 0.00 | 0.00 | 0.00 | 35 | 1021.3 |
| 20260831023007 | 61 | 5 | 0.0 | 0.0 | 0.00 | 0.00 | 0.00 | 34 | 1021.3 |
| 20260831022506 | 62 | 319 | 0.0 | 0.0 | 0.00 | 0.00 | 0.00 | 33 | 1021.2 |
| 20260831022006 | 63 | 271 | 0.0 | 0.0 | 0.00 | 0.00 | 0.00 | 32 | 1021.2 |
| 20260831021507 | 64 | 311 | 0.0 | 0.0 | 0.00 | 0.00 | 0.00 | 32 | 1021.2 |
| 20260831021007 | 64 | 311 | 0.0 | 0.0 | 0.00 | 0.00 | 0.00 | 31 | 1021.3 |
| 20260831020007 | 65 | 0 | 0.0 | 0.0 | 0.00 | 0.00 | 0.00 | 30 | 1021.2 |
| 20260831015506 | 66 | 0 | 0.0 | 0.0 | 0.00 | 0.00 | 0.00 | 30 | 1021.2 |
| 20260831015006 | 66 | 351 | 0.0 | 0.0 | 0.00 | 0.00 | 0.00 | 30 | 1021.2 |
| 20260831014507 | 66 | 356 | 0.0 | 0.0 | 0.00 | 0.00 | 0.00 | 30 | 1021.2 |
| 20260831014006 | 67 | 13 | 0.0 | 0.0 | 0.00 | 0.00 | 0.00 | 29 | 1021.2 |
| 20260831013506 | 67 | 13 | 0.0 | 0.0 | 0.00 | 0.00 | 0.00 | 29 | 1021.2 |
| 20260831013007 | 67 | 0 | 0.0 | 0.0 | 0.00 | 0.00 | 0.00 | 28 | 1021.2 |
| 20260831012507 | 67 | 8 | 0.0 | 0.0 | 0.00 | 0.00 | 0.00 | 28 | 1021.3 |
| 20260831012007 | 67 | 8 | 0.0 | 1.0 | 0.00 | 0.00 | 0.00 | 28 | 1021.3 |
| 20260831011507 | 68 | 15 | 0.0 | 0.0 | 0.00 | 0.00 | 0.00 | 28 | 1021.3 |
| 20260831011007 | 68 | 15 | 0.0 | 1.0 | 0.00 | 0.00 | 0.00 | 28 | 1021.3 |
| 20260831010507 | 69 | 11 | 0.0 | 1.0 | 0.00 | 0.00 | 0.00 | 28 | 1021.2 |
| 20260831010007 | 69 | 14 | 0.0 | 0.0 | 0.00 | 0.00 | 0.00 | 28 | 1021.2 |
| 20260831005507 | 69 | 352 | 0.0 | 1.0 | 0.00 | 0.00 | 0.00 | 27 | 1021.3 |
| 20260831005007 | 70 | 20 | 0.0 | 0.0 | 0.00 | 0.00 | 0.00 | 27 | 1021.2 |
| 20260831004506 | 70 | 15 | 0.0 | 0.0 | 0.00 | 0.00 | 0.00 | 27 | 1021.3 |
| 20260831004007 | 69 | 16 | 0.0 | 0.0 | 0.00 | 0.00 | 0.00 | 27 | 1021.3 |
| 20260831003507 | 69 | 8 | 0.0 | 1.0 | 0.00 | 0.00 | 0.00 | 27 | 1021.3 |
| 20260831003007 | 69 | 46 | 0.0 | 0.0 | 0.00 | 0.00 | 0.00 | 27 | 1021.3 |
| 20260831002006 | 70 | 34 | 0.0 | 0.0 | 0.00 | 0.00 | 0.00 | 27 | 1021.3 |
| 20260831001506 | 70 | 359 | 0.0 | 1.0 | 0.00 | 0.00 | 0.00 | 27 | 1021.3 |